Hourly Weather Cerny Dul

Today, 15 June, Tuesday

Time Temperature Precipitation Wind Pressure Humidity
00:00 +11°C° 0 mm 1 mps 698 mmHg 88%
01:00 +11°C° 0 mm 1 mps 697 mmHg 88%
02:00 +10°C° 0 mm 1 mps 697 mmHg 89%
03:00 +10°C° 0 mm 1 mps 697 mmHg 89%
04:00 +10°C° 0 mm 1 mps 697 mmHg 90%
05:00 +12°C° 0 mm 1 mps 697 mmHg 84%
06:00 +14°C° 0 mm 1 mps 698 mmHg 78%
07:00 +15°C° 0 mm 0 mps 698 mmHg 72%
08:00 +18°C° 0 mm 1 mps 699 mmHg 67%
09:00 +20°C° 0 mm 1 mps 699 mmHg 62%
10:00 +22°C° 0 mm 1 mps 699 mmHg 57%
11:00 +22°C° 0 mm 1 mps 699 mmHg 55%
12:00 +23°C° 0 mm 2 mps 699 mmHg 53%
13:00 +24°C° 0 mm 2 mps 699 mmHg 51%
14:00 +23°C° 0.1 mm 2 mps 698 mmHg 54%
15:00 +23°C° 0.1 mm 1 mps 698 mmHg 57%
16:00 +22°C° 0.1 mm 1 mps 698 mmHg 60%
17:00 +21°C° 0.2 mm 1 mps 698 mmHg 68%
18:00 +20°C° 0.2 mm 1 mps 698 mmHg 76%
19:00 +18°C° 0.2 mm 1 mps 697 mmHg 84%
20:00 +16°C° 0.2 mm 1 mps 697 mmHg 86%
21:00 +15°C° 0.2 mm 1 mps 697 mmHg 89%
22:00 +14°C° 0.2 mm 1 mps 697 mmHg 91%
23:00 +14°C° 0 mm 1 mps 697 mmHg 92%

Tomorrow, 16 June, Wednesday

Time Temperature Precipitation Wind Pressure Humidity
00:00 +13°C° 0 mm 1 mps 697 mmHg 94%
01:00 +13°C° 0 mm 1 mps 697 mmHg 95%
02:00 +13°C° 0 mm 1 mps 697 mmHg 95%
03:00 +13°C° 0 mm 1 mps 697 mmHg 95%
04:00 +13°C° 0 mm 1 mps 697 mmHg 95%
05:00 +14°C° 0 mm 1 mps 697 mmHg 92%
06:00 +15°C° 0 mm 1 mps 698 mmHg 90%
07:00 +16°C° 0 mm 1 mps 698 mmHg 88%
08:00 +18°C° 0 mm 1 mps 698 mmHg 83%
09:00 +19°C° 0 mm 1 mps 698 mmHg 77%
10:00 +20°C° 0 mm 1 mps 699 mmHg 72%
11:00 +21°C° 0.2 mm 1 mps 698 mmHg 69%
12:00 +22°C° 0.2 mm 1 mps 698 mmHg 67%
13:00 +23°C° 0.2 mm 1 mps 698 mmHg 64%
14:00 +23°C° 0.4 mm 1 mps 698 mmHg 65%
15:00 +23°C° 0.4 mm 1 mps 698 mmHg 67%
16:00 +23°C° 0.4 mm 1 mps 698 mmHg 69%
17:00 +21°C° 0.3 mm 2 mps 698 mmHg 74%
18:00 +20°C° 0.3 mm 2 mps 698 mmHg 80%
19:00 +19°C° 0.3 mm 2 mps 697 mmHg 86%
20:00 +18°C° 0 mm 2 mps 697 mmHg 88%
21:00 +16°C° 0 mm 1 mps 697 mmHg 90%
22:00 +15°C° 0 mm 1 mps 697 mmHg 93%
23:00 +15°C° 0 mm 1 mps 697 mmHg 92%

Day after tomorrow, 17 June, Thursday

Time Temperature Precipitation Wind Pressure Humidity
00:00 +15°C° 0 mm 1 mps 697 mmHg 92%
01:00 +15°C° 0 mm 1 mps 697 mmHg 92%
02:00 +14°C° 0 mm 1 mps 697 mmHg 92%
03:00 +14°C° 0 mm 1 mps 697 mmHg 92%
04:00 +14°C° 0 mm 1 mps 697 mmHg 91%
05:00 +16°C° 0 mm 1 mps 697 mmHg 85%
06:00 +19°C° 0 mm 1 mps 698 mmHg 80%
07:00 +21°C° 0 mm 1 mps 698 mmHg 74%
08:00 +21°C° 0 mm 2 mps 698 mmHg 67%
09:00 +23°C° 0 mm 2 mps 698 mmHg 59%
10:00 +25°C° 0 mm 3 mps 699 mmHg 52%
11:00 +25°C° 0 mm 3 mps 699 mmHg 50%
12:00 +26°C° 0 mm 3 mps 699 mmHg 48%
13:00 +27°C° 0 mm 3 mps 699 mmHg 47%
14:00 +27°C° 0 mm 3 mps 699 mmHg 47%
15:00 +26°C° 0 mm 3 mps 698 mmHg 48%
16:00 +26°C° 0 mm 3 mps 698 mmHg 49%
17:00 +25°C° 0 mm 2 mps 698 mmHg 57%
18:00 +24°C° 0 mm 2 mps 698 mmHg 65%
19:00 +22°C° 0 mm 1 mps 698 mmHg 73%
20:00 +20°C° 0 mm 2 mps 698 mmHg 76%
21:00 +18°C° 0 mm 2 mps 697 mmHg 79%
22:00 +17°C° 0 mm 2 mps 697 mmHg 82%
23:00 +17°C° 0 mm 2 mps 697 mmHg 83%

18 June, Friday

Time Temperature Precipitation Wind Pressure Humidity
00:00 +16°C° 0 mm 2 mps 697 mmHg 83%
01:00 +16°C° 0 mm 2 mps 697 mmHg 83%
02:00 +16°C° 0 mm 2 mps 697 mmHg 83%
03:00 +15°C° 0 mm 2 mps 697 mmHg 84%
04:00 +15°C° 0 mm 1 mps 697 mmHg 84%
05:00 +17°C° 0 mm 2 mps 697 mmHg 78%
06:00 +19°C° 0 mm 2 mps 698 mmHg 71%
07:00 +21°C° 0 mm 3 mps 698 mmHg 65%
08:00 +22°C° 0 mm 3 mps 698 mmHg 60%
09:00 +23°C° 0 mm 4 mps 698 mmHg 55%
10:00 +25°C° 0 mm 5 mps 698 mmHg 51%
11:00 +26°C° 0 mm 5 mps 699 mmHg 48%
12:00 +26°C° 0 mm 5 mps 699 mmHg 46%
13:00 +27°C° 0 mm 5 mps 699 mmHg 43%
14:00 +27°C° 0 mm 4 mps 698 mmHg 46%
15:00 +26°C° 0 mm 4 mps 698 mmHg 48%
16:00 +26°C° 0 mm 4 mps 698 mmHg 50%
17:00 +25°C° 0 mm 3 mps 698 mmHg 57%
18:00 +24°C° 0 mm 3 mps 698 mmHg 64%
19:00 +21°C° 0 mm 2 mps 697 mmHg 71%
20:00 +20°C° 0 mm 2 mps 697 mmHg 73%
21:00 +19°C° 0 mm 2 mps 697 mmHg 75%
22:00 +17°C° 0 mm 2 mps 697 mmHg 77%
23:00 +17°C° 0 mm 2 mps 697 mmHg 77%

19 June, Saturday

Time Temperature Precipitation Wind Pressure Humidity
00:00 +17°C° 0 mm 2 mps 697 mmHg 77%
01:00 +17°C° 0 mm 2 mps 697 mmHg 77%
02:00 +17°C° 0 mm 2 mps 697 mmHg 78%
03:00 +16°C° 0 mm 2 mps 697 mmHg 78%
04:00 +16°C° 0 mm 1 mps 697 mmHg 79%
05:00 +18°C° 0 mm 2 mps 698 mmHg 74%
06:00 +20°C° 0 mm 2 mps 698 mmHg 69%
07:00 +23°C° 0 mm 2 mps 698 mmHg 63%
08:00 +24°C° 0 mm 2 mps 699 mmHg 59%
09:00 +25°C° 0 mm 2 mps 699 mmHg 54%
10:00 +27°C° 0 mm 2 mps 699 mmHg 50%
11:00 +27°C° 0 mm 2 mps 699 mmHg 48%
12:00 +28°C° 0 mm 2 mps 699 mmHg 46%
13:00 +29°C° 0 mm 2 mps 699 mmHg 44%
14:00 +29°C° 0 mm 2 mps 699 mmHg 44%
15:00 +29°C° 0 mm 2 mps 699 mmHg 45%
16:00 +29°C° 0 mm 1 mps 698 mmHg 45%
17:00 +27°C° 0 mm 1 mps 698 mmHg 54%
18:00 +26°C° 0 mm 1 mps 698 mmHg 62%
19:00 +24°C° 0 mm 1 mps 698 mmHg 70%
20:00 +23°C° 0 mm 1 mps 697 mmHg 72%
21:00 +22°C° 0 mm 1 mps 697 mmHg 74%
22:00 +20°C° 0 mm 1 mps 697 mmHg 76%
23:00 +20°C° 0.1 mm 1 mps 697 mmHg 78%

20 June, Sunday

Time Temperature Precipitation Wind Pressure Humidity
00:00 +20°C° 0.1 mm 1 mps 697 mmHg 80%
01:00 +19°C° 0.1 mm 1 mps 697 mmHg 82%
02:00 +19°C° 0 mm 1 mps 696 mmHg 83%
03:00 +19°C° 0 mm 1 mps 696 mmHg 83%
04:00 +18°C° 0 mm 1 mps 696 mmHg 84%
05:00 +20°C° 0 mm 1 mps 696 mmHg 79%
06:00 +22°C° 0 mm 1 mps 696 mmHg 74%
07:00 +24°C° 0 mm 1 mps 696 mmHg 69%
08:00 +25°C° 0 mm 1 mps 697 mmHg 63%
09:00 +27°C° 0 mm 2 mps 697 mmHg 56%
10:00 +28°C° 0 mm 2 mps 697 mmHg 50%
11:00 +29°C° 0 mm 2 mps 697 mmHg 47%
12:00 +29°C° 0 mm 3 mps 696 mmHg 45%
13:00 +30°C° 0 mm 3 mps 696 mmHg 42%
14:00 +30°C° 0 mm 3 mps 696 mmHg 43%
15:00 +29°C° 0 mm 3 mps 696 mmHg 45%
16:00 +29°C° 0 mm 3 mps 695 mmHg 46%
17:00 +28°C° 0 mm 3 mps 695 mmHg 55%
18:00 +26°C° 0 mm 3 mps 694 mmHg 63%
19:00 +25°C° 0 mm 2 mps 694 mmHg 71%
20:00 +23°C° 0 mm 2 mps 694 mmHg 74%
21:00 +21°C° 0 mm 2 mps 694 mmHg 77%
22:00 +21°C° 0 mm 1 mps 695 mmHg 79%
23:00 +20°C° 0 mm 1 mps 694 mmHg 79%
Show more

We Need Your Consent

Meteoprog and our Service Providers may store and access personal data such as cookies, device identifiers or other similar technologies on your device and process such data to personalise content and ads, as well as provide social media features and to analyse the traffic.

  • Store and/or access information on your device

    Cookies, device identifiers or other information can be stored or accessed on your device for the purposes indicated above.

  • Personalised ads and content, ad and content measurement, audience insights, and products development

    Ads and content can be personalised based on a profile. More data can be added to better personalise ads and content. Ad and content performance can be measured. Insights about the audience who saw the ads and content can be derived. Such data can be used to develop or improve user’s experience, systems and software.

By clicking ‘I Agree’ you will allow the use of indicated cookies, device identifiers, web beacons or other similar technologies. Your settings can be changed in the browser on your device.

For certain purposes, legitimate interests may be relied on, rather than consent. You can read more about this in our Privacy and Cookie Policy.